<?xml version="1.0" encoding="UTF-8" standalone="no" ?>
<gpx xmlns="http://www.topografix.com/GPX/1/1" xmlns:xsi="http://www.w3.org/2001/XMLSchema-instance" xsi:schemaLocation="http://www.topografix.com/GPX/1/1 http://www.topografix.com/GPX/1/1/gpx.xsd" version="1.1" creator="VisuGPX - https://www.visugpx.com">
  <metadata>
    <name>tour france</name>
  </metadata>
  <trk>
    <name><![CDATA[Trace 3]]></name>
    <extensions>
      <line xmlns="http://www.topografix.com/GPX/gpx_style/0/2">
        <color>00ffcc</color>
        <width>4</width>
      </line>
    </extensions>
    <trkseg>
      <trkpt lat="44.52874" lon="2.72629">
        <ele>427.426</ele>
        <time>2021-01-02T20:37:40Z</time>
        <extensions>
          <visugpx:TrkExtension xmlns:visugpx="https://www.visugpx.com/editgpx/">
            <visugpx:node>4</visugpx:node>
            </visugpx:TrkExtension>
        </extensions>
      </trkpt>
      <trkpt lat="44.52829" lon="2.72595">
        <ele>431.955</ele>
        <time>2021-01-02T20:38:00Z</time>
      </trkpt>
      <trkpt lat="44.52822" lon="2.72542">
        <ele>436.094</ele>
        <time>2021-01-02T20:38:20Z</time>
      </trkpt>
      <trkpt lat="44.52851" lon="2.72563">
        <ele>440.04</ele>
        <time>2021-01-02T20:38:40Z</time>
      </trkpt>
      <trkpt lat="44.52869" lon="2.72534">
        <ele>447.091</ele>
        <time>2021-01-02T20:39:00Z</time>
      </trkpt>
      <trkpt lat="44.52935" lon="2.72383">
        <ele>481.634</ele>
        <time>2016-09-14T10:30:14Z</time>
      </trkpt>
      <trkpt lat="44.52949" lon="2.72224">
        <ele>483.813</ele>
        <time>2016-09-14T10:30:34Z</time>
      </trkpt>
      <trkpt lat="44.52915" lon="2.72151">
        <ele>489.093</ele>
        <time>2016-09-14T10:30:54Z</time>
      </trkpt>
      <trkpt lat="44.529" lon="2.72057">
        <ele>483.965</ele>
        <time>2016-09-14T10:31:14Z</time>
      </trkpt>
      <trkpt lat="44.5288" lon="2.72001">
        <ele>484.321</ele>
        <time>2016-09-14T10:31:34Z</time>
      </trkpt>
      <trkpt lat="44.52874" lon="2.71889">
        <ele>491.708</ele>
        <time>2016-09-14T10:31:54Z</time>
      </trkpt>
      <trkpt lat="44.5294" lon="2.71782">
        <ele>485.355</ele>
        <time>2016-09-14T10:32:14Z</time>
      </trkpt>
      <trkpt lat="44.52989" lon="2.71673">
        <ele>482.912</ele>
        <time>2016-09-14T10:32:34Z</time>
      </trkpt>
      <trkpt lat="44.53012" lon="2.71473">
        <ele>483.011</ele>
        <time>2016-09-14T10:32:54Z</time>
      </trkpt>
      <trkpt lat="44.53045" lon="2.71426">
        <ele>486.92</ele>
        <time>2016-09-14T10:33:14Z</time>
      </trkpt>
      <trkpt lat="44.53084" lon="2.71273">
        <ele>483.566</ele>
        <time>2016-09-14T10:33:34Z</time>
      </trkpt>
      <trkpt lat="44.53133" lon="2.71243">
        <ele>477.447</ele>
        <time>2016-09-14T10:33:54Z</time>
      </trkpt>
      <trkpt lat="44.53157" lon="2.71194">
        <ele>475.77</ele>
        <time>2016-09-14T10:34:14Z</time>
      </trkpt>
      <trkpt lat="44.53211" lon="2.71147">
        <ele>478.469</ele>
        <time>2016-09-14T10:34:34Z</time>
      </trkpt>
      <trkpt lat="44.53235" lon="2.71151">
        <ele>479.282</ele>
        <time>2016-09-14T10:34:54Z</time>
      </trkpt>
      <trkpt lat="44.53246" lon="2.71097">
        <ele>482.943</ele>
        <time>2016-09-14T10:35:14Z</time>
      </trkpt>
      <trkpt lat="44.5327" lon="2.71042">
        <ele>486.417</ele>
        <time>2016-09-14T10:35:34Z</time>
      </trkpt>
      <trkpt lat="44.53285" lon="2.70956">
        <ele>486.108</ele>
        <time>2016-09-14T10:35:54Z</time>
      </trkpt>
      <trkpt lat="44.53321" lon="2.70986">
        <ele>486.584</ele>
        <time>2016-09-14T10:36:14Z</time>
      </trkpt>
      <trkpt lat="44.53339" lon="2.71022">
        <ele>487.631</ele>
        <time>2016-09-14T10:36:34Z</time>
      </trkpt>
      <trkpt lat="44.53455" lon="2.71087">
        <ele>485.83</ele>
        <time>2016-09-14T10:36:54Z</time>
      </trkpt>
      <trkpt lat="44.53672" lon="2.71092">
        <ele>482.449</ele>
        <time>2019-03-30T12:55:01Z</time>
      </trkpt>
      <trkpt lat="44.53751" lon="2.71132">
        <ele>486.265</ele>
        <time>2019-03-30T12:55:21Z</time>
      </trkpt>
      <trkpt lat="44.53817" lon="2.71088">
        <ele>487.276</ele>
        <time>2019-03-30T12:55:41Z</time>
      </trkpt>
      <trkpt lat="44.53817" lon="2.71088">
        <ele>487.276</ele>
        <time>2019-03-30T12:55:41Z</time>
        <extensions>
          <visugpx:TrkExtension xmlns:visugpx="https://www.visugpx.com/editgpx/">
            <visugpx:node>1</visugpx:node>
            </visugpx:TrkExtension>
        </extensions>
      </trkpt>
      <trkpt lat="44.53932" lon="2.70955">
        <ele>479.749</ele>
        <time>2019-03-30T12:56:01Z</time>
      </trkpt>
      <trkpt lat="44.53958" lon="2.70795">
        <ele>464.398</ele>
        <time>2016-09-14T10:38:14Z</time>
      </trkpt>
      <trkpt lat="44.5401" lon="2.70821">
        <ele>457.077</ele>
        <time>2016-09-14T10:38:34Z</time>
      </trkpt>
      <trkpt lat="44.5405" lon="2.70939">
        <ele>445.661</ele>
        <time>2016-09-14T10:38:54Z</time>
      </trkpt>
      <trkpt lat="44.54058" lon="2.70997">
        <ele>441.727</ele>
        <time>2016-09-14T10:39:14Z</time>
      </trkpt>
      <trkpt lat="44.54067" lon="2.70919">
        <ele>438.508</ele>
        <time>2016-09-14T10:39:34Z</time>
      </trkpt>
      <trkpt lat="44.54093" lon="2.70874">
        <ele>430.143</ele>
        <time>2016-09-14T10:39:54Z</time>
      </trkpt>
      <trkpt lat="44.54095" lon="2.70795">
        <ele>421.76</ele>
        <time>2016-09-14T10:40:14Z</time>
      </trkpt>
      <trkpt lat="44.54067" lon="2.70722">
        <ele>418.249</ele>
        <time>2016-09-14T10:40:34Z</time>
      </trkpt>
      <trkpt lat="44.54066" lon="2.70598">
        <ele>397.198</ele>
        <time>2016-09-14T10:40:54Z</time>
      </trkpt>
      <trkpt lat="44.54133" lon="2.70527">
        <ele>381.174</ele>
        <time>2016-09-14T10:41:14Z</time>
      </trkpt>
      <trkpt lat="44.54137" lon="2.70473">
        <ele>377.125</ele>
        <time>2016-09-14T10:41:34Z</time>
      </trkpt>
      <trkpt lat="44.54151" lon="2.70379">
        <ele>373.188</ele>
        <time>2016-09-14T10:41:54Z</time>
      </trkpt>
      <trkpt lat="44.54017" lon="2.7037">
        <ele>367.987</ele>
        <time>2016-09-14T10:42:14Z</time>
      </trkpt>
      <trkpt lat="44.53974" lon="2.70353">
        <ele>365.166</ele>
        <time>2016-09-14T10:42:34Z</time>
      </trkpt>
      <trkpt lat="44.5394" lon="2.7031">
        <ele>362.229</ele>
        <time>2016-09-14T10:42:54Z</time>
      </trkpt>
      <trkpt lat="44.53948" lon="2.70228">
        <ele>358.721</ele>
        <time>2016-09-14T10:43:14Z</time>
      </trkpt>
      <trkpt lat="44.53822" lon="2.70067">
        <ele>363.608</ele>
        <time>2016-09-14T10:43:34Z</time>
      </trkpt>
      <trkpt lat="44.54035" lon="2.6951">
        <ele>351.832</ele>
        <time>2016-09-14T10:43:54Z</time>
      </trkpt>
      <trkpt lat="44.54075" lon="2.69175">
        <ele>346.749</ele>
        <time>2016-09-14T10:44:14Z</time>
      </trkpt>
      <trkpt lat="44.54007" lon="2.69095">
        <ele>343.748</ele>
        <time>2016-09-14T10:44:34Z</time>
      </trkpt>
      <trkpt lat="44.53752" lon="2.68941">
        <ele>348.927</ele>
        <time>2016-09-14T10:44:54Z</time>
      </trkpt>
      <trkpt lat="44.53876" lon="2.68748">
        <ele>346.853</ele>
        <time>2016-09-14T10:45:14Z</time>
      </trkpt>
      <trkpt lat="44.54024" lon="2.68638">
        <ele>343.194</ele>
        <time>2016-09-14T10:45:34Z</time>
      </trkpt>
      <trkpt lat="44.54128" lon="2.68475">
        <ele>340.597</ele>
        <time>2016-09-14T10:45:54Z</time>
      </trkpt>
      <trkpt lat="44.54226" lon="2.68364">
        <ele>337.156</ele>
        <time>2016-09-14T10:46:14Z</time>
      </trkpt>
      <trkpt lat="44.54251" lon="2.68306">
        <ele>334.039</ele>
        <time>2016-09-14T10:46:34Z</time>
      </trkpt>
      <trkpt lat="44.5431" lon="2.68319">
        <ele>336.401</ele>
        <time>2016-09-14T10:46:54Z</time>
      </trkpt>
      <trkpt lat="44.54326" lon="2.68269">
        <ele>335.321</ele>
        <time>2016-09-14T10:47:14Z</time>
      </trkpt>
      <trkpt lat="44.54324" lon="2.68141">
        <ele>323.408</ele>
        <time>2016-09-14T10:47:34Z</time>
      </trkpt>
      <trkpt lat="44.54269" lon="2.68091">
        <ele>324.599</ele>
        <time>2016-09-14T10:47:54Z</time>
      </trkpt>
      <trkpt lat="44.54275" lon="2.68048">
        <ele>330.936</ele>
        <time>2016-09-14T10:48:14Z</time>
      </trkpt>
      <trkpt lat="44.54345" lon="2.68053">
        <ele>332.425</ele>
        <time>2016-09-14T10:48:34Z</time>
      </trkpt>
      <trkpt lat="44.5442" lon="2.68177">
        <ele>324.284</ele>
        <time>2016-09-14T10:48:54Z</time>
      </trkpt>
      <trkpt lat="44.54538" lon="2.6816">
        <ele>340.96</ele>
        <time>2016-09-14T10:49:14Z</time>
      </trkpt>
      <trkpt lat="44.54624" lon="2.68179">
        <ele>345.371</ele>
        <time>2016-09-14T10:49:34Z</time>
      </trkpt>
      <trkpt lat="44.54656" lon="2.6828">
        <ele>332.664</ele>
        <time>2016-09-14T10:49:54Z</time>
      </trkpt>
      <trkpt lat="44.54709" lon="2.68351">
        <ele>347.213</ele>
        <time>2016-09-14T10:50:14Z</time>
      </trkpt>
      <trkpt lat="44.54757" lon="2.6852">
        <ele>346.138</ele>
        <time>2016-09-14T10:50:34Z</time>
      </trkpt>
      <trkpt lat="44.54823" lon="2.68632">
        <ele>355.27</ele>
        <time>2016-09-14T10:50:54Z</time>
      </trkpt>
      <trkpt lat="44.54876" lon="2.68636">
        <ele>357.908</ele>
        <time>2016-09-14T10:51:34Z</time>
      </trkpt>
      <trkpt lat="44.54891" lon="2.68394">
        <ele>358.589</ele>
        <time>2016-09-14T10:51:54Z</time>
      </trkpt>
      <trkpt lat="44.54838" lon="2.68128">
        <ele>351.496</ele>
        <time>2016-09-14T10:52:14Z</time>
      </trkpt>
      <trkpt lat="44.54852" lon="2.68018">
        <ele>338.995</ele>
        <time>2016-09-14T10:52:34Z</time>
      </trkpt>
      <trkpt lat="44.54908" lon="2.67877">
        <ele>333.374</ele>
        <time>2016-09-14T10:52:54Z</time>
      </trkpt>
      <trkpt lat="44.55015" lon="2.67774">
        <ele>328.99</ele>
        <time>2016-09-14T10:53:14Z</time>
      </trkpt>
      <trkpt lat="44.55089" lon="2.6766">
        <ele>332.361</ele>
        <time>2016-09-14T10:53:34Z</time>
      </trkpt>
      <trkpt lat="44.55104" lon="2.67576">
        <ele>334.624</ele>
        <time>2016-09-14T10:53:54Z</time>
      </trkpt>
      <trkpt lat="44.55154" lon="2.67482">
        <ele>339.953</ele>
        <time>2016-09-14T10:54:14Z</time>
      </trkpt>
      <trkpt lat="44.55238" lon="2.67383">
        <ele>323.825</ele>
        <time>2016-09-14T10:54:34Z</time>
      </trkpt>
      <trkpt lat="44.55245" lon="2.67201">
        <ele>316.626</ele>
        <time>2016-09-14T10:54:54Z</time>
      </trkpt>
      <trkpt lat="44.55125" lon="2.67124">
        <ele>317.108</ele>
        <time>2016-09-14T10:55:14Z</time>
      </trkpt>
      <trkpt lat="44.55058" lon="2.67143">
        <ele>324.008</ele>
        <time>2016-09-14T10:55:34Z</time>
      </trkpt>
      <trkpt lat="44.54988" lon="2.67117">
        <ele>325.598</ele>
        <time>2016-09-14T10:55:54Z</time>
      </trkpt>
      <trkpt lat="44.54911" lon="2.67169">
        <ele>335.085</ele>
        <time>2016-09-14T10:56:14Z</time>
      </trkpt>
      <trkpt lat="44.54812" lon="2.67192">
        <ele>334.514</ele>
        <time>2016-09-14T10:56:34Z</time>
      </trkpt>
      <trkpt lat="44.54708" lon="2.67076">
        <ele>341.443</ele>
        <time>2016-09-14T10:56:54Z</time>
      </trkpt>
      <trkpt lat="44.54708" lon="2.66909">
        <ele>337.289</ele>
        <time>2016-09-14T10:57:14Z</time>
      </trkpt>
      <trkpt lat="44.54683" lon="2.66765">
        <ele>330.98</ele>
        <time>2016-09-14T10:57:34Z</time>
      </trkpt>
      <trkpt lat="44.54703" lon="2.66688">
        <ele>328.023</ele>
        <time>2016-09-14T10:57:54Z</time>
      </trkpt>
      <trkpt lat="44.54737" lon="2.66613">
        <ele>330.342</ele>
        <time>2016-09-14T10:58:14Z</time>
      </trkpt>
      <trkpt lat="44.548" lon="2.66589">
        <ele>329.157</ele>
        <time>2016-09-14T10:58:34Z</time>
      </trkpt>
      <trkpt lat="44.54911" lon="2.66617">
        <ele>322.3</ele>
        <time>2016-09-14T10:58:54Z</time>
      </trkpt>
      <trkpt lat="44.54992" lon="2.66581">
        <ele>324.82</ele>
        <time>2016-09-14T10:59:14Z</time>
      </trkpt>
      <trkpt lat="44.55043" lon="2.66531">
        <ele>329.808</ele>
        <time>2016-09-14T10:59:34Z</time>
      </trkpt>
      <trkpt lat="44.55165" lon="2.66497">
        <ele>316.831</ele>
        <time>2016-09-14T10:59:54Z</time>
      </trkpt>
      <trkpt lat="44.55238" lon="2.66418">
        <ele>324.078</ele>
        <time>2016-09-14T11:00:14Z</time>
      </trkpt>
      <trkpt lat="44.55419" lon="2.66261">
        <ele>323.577</ele>
        <time>2016-09-14T11:00:34Z</time>
      </trkpt>
      <trkpt lat="44.55491" lon="2.66239">
        <ele>328.836</ele>
        <time>2016-09-14T11:00:54Z</time>
      </trkpt>
      <trkpt lat="44.55555" lon="2.66177">
        <ele>334.512</ele>
        <time>2016-09-14T11:01:14Z</time>
      </trkpt>
      <trkpt lat="44.55986" lon="2.66018">
        <ele>318.073</ele>
        <time>2016-09-14T11:01:34Z</time>
      </trkpt>
      <trkpt lat="44.56056" lon="2.65978">
        <ele>318.6</ele>
        <extensions>
          <visugpx:TrkExtension xmlns:visugpx="https://www.visugpx.com/editgpx/">
            <visugpx:node>2</visugpx:node>
            </visugpx:TrkExtension>
        </extensions>
      </trkpt>
      <trkpt lat="44.56056" lon="2.65978">
        <ele>318.6</ele>
        <extensions>
          <visugpx:TrkExtension xmlns:visugpx="https://www.visugpx.com/editgpx/">
            <visugpx:node>3</visugpx:node>
            </visugpx:TrkExtension>
        </extensions>
      </trkpt>
      <trkpt lat="44.56157" lon="2.65922">
        <ele>321.046</ele>
        <time>2016-09-14T11:01:54Z</time>
      </trkpt>
      <trkpt lat="44.56425" lon="2.65881">
        <ele>329.095</ele>
        <time>2016-09-14T11:02:14Z</time>
      </trkpt>
      <trkpt lat="44.56388" lon="2.65802">
        <ele>329.169</ele>
        <time>2016-09-14T11:02:34Z</time>
      </trkpt>
      <trkpt lat="44.56368" lon="2.65658">
        <ele>342.904</ele>
        <time>2016-09-14T11:02:54Z</time>
      </trkpt>
      <trkpt lat="44.56371" lon="2.65591">
        <ele>339.824</ele>
        <time>2016-09-14T11:03:14Z</time>
      </trkpt>
      <trkpt lat="44.56358" lon="2.65516">
        <ele>353.008</ele>
        <time>2016-09-14T11:03:34Z</time>
      </trkpt>
      <trkpt lat="44.5641" lon="2.65465">
        <ele>337.892</ele>
        <time>2016-09-14T11:03:54Z</time>
      </trkpt>
      <trkpt lat="44.56428" lon="2.65368">
        <ele>326.819</ele>
        <time>2016-09-14T11:04:14Z</time>
      </trkpt>
      <trkpt lat="44.56378" lon="2.65312">
        <ele>331.018</ele>
        <time>2016-09-14T11:04:34Z</time>
      </trkpt>
      <trkpt lat="44.5635" lon="2.65293">
        <ele>335.797</ele>
        <time>2016-09-14T11:04:54Z</time>
      </trkpt>
      <trkpt lat="44.56355" lon="2.65117">
        <ele>330.933</ele>
        <time>2016-09-14T11:05:14Z</time>
      </trkpt>
      <trkpt lat="44.5637" lon="2.65057">
        <ele>332.364</ele>
        <time>2016-09-14T11:05:34Z</time>
      </trkpt>
      <trkpt lat="44.56342" lon="2.64939">
        <ele>336.567</ele>
        <time>2016-09-14T11:05:54Z</time>
      </trkpt>
      <trkpt lat="44.564" lon="2.65012">
        <ele>338.576</ele>
        <time>2016-09-14T11:06:14Z</time>
      </trkpt>
      <trkpt lat="44.56387" lon="2.64933">
        <ele>349.764</ele>
        <time>2016-09-14T11:06:34Z</time>
      </trkpt>
      <trkpt lat="44.56413" lon="2.64952">
        <ele>358.406</ele>
        <time>2016-09-14T11:06:54Z</time>
      </trkpt>
      <trkpt lat="44.56402" lon="2.64879">
        <ele>361.216</ele>
        <time>2016-09-14T11:07:14Z</time>
      </trkpt>
      <trkpt lat="44.56391" lon="2.64617">
        <ele>392.008</ele>
        <time>2016-09-14T11:07:34Z</time>
      </trkpt>
      <trkpt lat="44.56362" lon="2.64512">
        <ele>387.812</ele>
        <time>2016-09-14T11:07:54Z</time>
      </trkpt>
      <trkpt lat="44.56407" lon="2.64546">
        <ele>405.289</ele>
        <time>2016-09-14T11:08:14Z</time>
      </trkpt>
      <trkpt lat="44.564" lon="2.64362">
        <ele>434.918</ele>
        <time>2016-09-14T11:08:34Z</time>
      </trkpt>
      <trkpt lat="44.56492" lon="2.64435">
        <ele>449.887</ele>
        <time>2016-09-14T11:08:54Z</time>
      </trkpt>
      <trkpt lat="44.56507" lon="2.64405">
        <ele>461.993</ele>
        <time>2016-09-14T11:09:14Z</time>
      </trkpt>
      <trkpt lat="44.5654" lon="2.64493">
        <ele>455.984</ele>
        <time>2016-09-14T11:09:34Z</time>
      </trkpt>
      <trkpt lat="44.56515" lon="2.64349">
        <ele>482.277</ele>
        <time>2016-09-14T11:09:54Z</time>
      </trkpt>
      <trkpt lat="44.56448" lon="2.64283">
        <ele>485.076</ele>
        <time>2016-09-14T11:10:14Z</time>
      </trkpt>
      <trkpt lat="44.56422" lon="2.6419">
        <ele>493.931</ele>
        <time>2016-09-14T11:10:34Z</time>
      </trkpt>
      <trkpt lat="44.56439" lon="2.64079">
        <ele>501.261</ele>
        <time>2016-09-14T11:10:54Z</time>
      </trkpt>
      <trkpt lat="44.56515" lon="2.63941">
        <ele>513.507</ele>
        <time>2016-09-14T11:11:14Z</time>
      </trkpt>
      <trkpt lat="44.56526" lon="2.63607">
        <ele>538.508</ele>
        <time>2016-09-14T11:11:34Z</time>
      </trkpt>
      <trkpt lat="44.56445" lon="2.63373">
        <ele>564.079</ele>
        <time>2016-09-14T11:11:54Z</time>
      </trkpt>
      <trkpt lat="44.5643" lon="2.63259">
        <ele>572.466</ele>
        <time>2016-09-14T11:12:14Z</time>
      </trkpt>
      <trkpt lat="44.56448" lon="2.63218">
        <ele>576.385</ele>
        <time>2016-09-14T11:12:34Z</time>
      </trkpt>
      <trkpt lat="44.56469" lon="2.63255">
        <ele>580.564</ele>
        <time>2016-09-14T11:12:54Z</time>
      </trkpt>
      <trkpt lat="44.56604" lon="2.63175">
        <ele>592.62</ele>
        <time>2016-09-14T11:13:14Z</time>
      </trkpt>
      <trkpt lat="44.56705" lon="2.63014">
        <ele>594.671</ele>
        <time>2016-09-14T11:13:34Z</time>
      </trkpt>
      <trkpt lat="44.56743" lon="2.62898">
        <ele>600.454</ele>
        <time>2016-09-14T11:13:54Z</time>
      </trkpt>
      <trkpt lat="44.5674" lon="2.62789">
        <ele>608.373</ele>
        <time>2016-09-14T11:14:14Z</time>
      </trkpt>
      <trkpt lat="44.5678" lon="2.62785">
        <ele>613.888</ele>
        <time>2016-09-14T11:14:34Z</time>
      </trkpt>
      <trkpt lat="44.56841" lon="2.62735">
        <ele>619.324</ele>
        <time>2016-09-14T11:14:54Z</time>
      </trkpt>
      <trkpt lat="44.5696" lon="2.62701">
        <ele>623.226</ele>
        <time>2016-09-14T11:15:14Z</time>
      </trkpt>
      <trkpt lat="44.57053" lon="2.62596">
        <ele>637.208</ele>
        <time>2016-09-14T11:15:34Z</time>
      </trkpt>
      <trkpt lat="44.57302" lon="2.62482">
        <ele>651.194</ele>
        <time>2016-09-14T11:15:54Z</time>
      </trkpt>
      <trkpt lat="44.57353" lon="2.6239">
        <ele>658.591</ele>
        <time>2016-09-14T11:16:14Z</time>
      </trkpt>
      <trkpt lat="44.57493" lon="2.62263">
        <ele>656.839</ele>
        <time>2016-09-14T11:16:54Z</time>
      </trkpt>
      <trkpt lat="44.57518" lon="2.6221">
        <ele>657.685</ele>
        <time>2016-09-14T11:17:14Z</time>
      </trkpt>
      <trkpt lat="44.57547" lon="2.62182">
        <ele>658.216</ele>
        <time>2016-09-14T11:17:34Z</time>
      </trkpt>
      <trkpt lat="44.57695" lon="2.62135">
        <ele>648.189</ele>
        <time>2016-09-14T11:17:54Z</time>
      </trkpt>
      <trkpt lat="44.57715" lon="2.62079">
        <ele>649.198</ele>
        <time>2016-09-14T11:18:14Z</time>
      </trkpt>
      <trkpt lat="44.57779" lon="2.62004">
        <ele>637.523</ele>
        <time>2016-09-14T11:18:34Z</time>
      </trkpt>
      <trkpt lat="44.57888" lon="2.62021">
        <ele>623.983</ele>
        <time>2016-09-14T11:18:54Z</time>
      </trkpt>
      <trkpt lat="44.57961" lon="2.62053">
        <ele>618.111</ele>
        <time>2016-09-14T11:19:14Z</time>
      </trkpt>
      <trkpt lat="44.57996" lon="2.62038">
        <ele>612.908</ele>
        <time>2016-09-14T11:19:34Z</time>
      </trkpt>
      <trkpt lat="44.58053" lon="2.6192">
        <ele>599.278</ele>
        <time>2016-09-14T11:19:54Z</time>
      </trkpt>
      <trkpt lat="44.58171" lon="2.61851">
        <ele>601.935</ele>
        <time>2016-09-14T11:20:14Z</time>
      </trkpt>
      <trkpt lat="44.58299" lon="2.61815">
        <ele>596.994</ele>
        <time>2016-09-14T11:20:34Z</time>
      </trkpt>
      <trkpt lat="44.58384" lon="2.6174">
        <ele>607.313</ele>
        <time>2016-09-14T11:20:54Z</time>
      </trkpt>
      <trkpt lat="44.58453" lon="2.61712">
        <ele>591.279</ele>
        <time>2016-09-14T11:21:14Z</time>
      </trkpt>
      <trkpt lat="44.58511" lon="2.61635">
        <ele>591.49</ele>
        <time>2016-09-14T11:21:34Z</time>
      </trkpt>
      <trkpt lat="44.5858" lon="2.61605">
        <ele>586.223</ele>
        <time>2016-09-14T11:21:54Z</time>
      </trkpt>
      <trkpt lat="44.58637" lon="2.61482">
        <ele>580.772</ele>
        <time>2016-09-14T11:22:14Z</time>
      </trkpt>
      <trkpt lat="44.5867" lon="2.6145">
        <ele>577.922</ele>
        <time>2016-09-14T11:22:34Z</time>
      </trkpt>
      <trkpt lat="44.58669" lon="2.6142">
        <ele>574.262</ele>
        <time>2016-09-14T11:22:54Z</time>
      </trkpt>
      <trkpt lat="44.58606" lon="2.61345">
        <ele>575.908</ele>
        <time>2016-09-14T11:23:14Z</time>
      </trkpt>
      <trkpt lat="44.58657" lon="2.61259">
        <ele>565.608</ele>
        <time>2016-09-14T11:23:34Z</time>
      </trkpt>
      <trkpt lat="44.58675" lon="2.61182">
        <ele>562.278</ele>
        <time>2016-09-14T11:23:54Z</time>
      </trkpt>
      <trkpt lat="44.58632" lon="2.61133">
        <ele>573.375</ele>
        <time>2016-09-14T11:24:14Z</time>
      </trkpt>
      <trkpt lat="44.5866" lon="2.61096">
        <ele>572.194</ele>
        <time>2016-09-14T11:24:34Z</time>
      </trkpt>
      <trkpt lat="44.58716" lon="2.61087">
        <ele>562.963</ele>
        <time>2016-09-14T11:24:54Z</time>
      </trkpt>
      <trkpt lat="44.58774" lon="2.61102">
        <ele>555.239</ele>
        <time>2016-09-14T11:25:14Z</time>
      </trkpt>
      <trkpt lat="44.58846" lon="2.6107">
        <ele>552.85</ele>
        <time>2016-09-14T11:25:34Z</time>
      </trkpt>
      <trkpt lat="44.58848" lon="2.60944">
        <ele>566.923</ele>
        <time>2016-09-14T11:25:54Z</time>
      </trkpt>
      <trkpt lat="44.58803" lon="2.60871">
        <ele>583.032</ele>
        <time>2016-09-14T11:26:14Z</time>
      </trkpt>
      <trkpt lat="44.588" lon="2.60772">
        <ele>592.888</ele>
        <time>2016-09-14T11:26:34Z</time>
      </trkpt>
      <trkpt lat="44.58848" lon="2.60652">
        <ele>588.324</ele>
        <time>2016-09-14T11:26:54Z</time>
      </trkpt>
      <trkpt lat="44.58848" lon="2.60476">
        <ele>591.626</ele>
        <time>2016-09-14T11:27:14Z</time>
      </trkpt>
      <trkpt lat="44.58895" lon="2.60379">
        <ele>587.308</ele>
        <time>2016-09-14T11:27:34Z</time>
      </trkpt>
      <trkpt lat="44.58895" lon="2.60298">
        <ele>588.874</ele>
        <time>2016-09-14T11:27:54Z</time>
      </trkpt>
      <trkpt lat="44.58924" lon="2.60206">
        <ele>586.521</ele>
        <time>2016-09-14T11:28:14Z</time>
      </trkpt>
      <trkpt lat="44.58976" lon="2.60193">
        <ele>584.23</ele>
        <time>2016-09-14T11:28:34Z</time>
      </trkpt>
      <trkpt lat="44.58877" lon="2.60081">
        <ele>609.949</ele>
        <time>2016-09-14T11:28:54Z</time>
      </trkpt>
      <trkpt lat="44.58938" lon="2.60073">
        <ele>608.885</ele>
        <time>2016-09-14T11:29:14Z</time>
      </trkpt>
      <trkpt lat="44.58935" lon="2.59985">
        <ele>618.426</ele>
        <time>2016-09-14T11:29:34Z</time>
      </trkpt>
      <trkpt lat="44.5901" lon="2.60083">
        <ele>603.489</ele>
        <time>2016-09-14T11:29:54Z</time>
      </trkpt>
      <trkpt lat="44.59095" lon="2.6003">
        <ele>610.458</ele>
        <time>2016-09-14T11:30:14Z</time>
      </trkpt>
      <trkpt lat="44.59144" lon="2.6">
        <ele>617.233</ele>
        <time>2016-09-14T11:30:34Z</time>
      </trkpt>
      <trkpt lat="44.59193" lon="2.59933">
        <ele>636.123</ele>
        <time>2016-09-14T11:30:54Z</time>
      </trkpt>
      <trkpt lat="44.5926" lon="2.59888">
        <ele>628.515</ele>
        <time>2016-09-14T11:31:14Z</time>
      </trkpt>
      <trkpt lat="44.59303" lon="2.59766">
        <ele>650.208</ele>
        <time>2016-09-14T11:31:34Z</time>
      </trkpt>
      <trkpt lat="44.59332" lon="2.5974">
        <ele>645.029</ele>
        <time>2016-09-14T11:31:54Z</time>
      </trkpt>
      <trkpt lat="44.59428" lon="2.59796">
        <ele>631.956</ele>
        <time>2016-09-14T11:32:14Z</time>
      </trkpt>
      <trkpt lat="44.59474" lon="2.5974">
        <ele>636.685</ele>
        <time>2016-09-14T11:32:34Z</time>
      </trkpt>
      <trkpt lat="44.5945" lon="2.59545">
        <ele>639.274</ele>
        <time>2016-09-14T11:32:54Z</time>
      </trkpt>
      <trkpt lat="44.59416" lon="2.59427">
        <ele>635.22</ele>
        <time>2016-09-14T11:33:14Z</time>
      </trkpt>
      <trkpt lat="44.59363" lon="2.59424">
        <ele>636.141</ele>
        <time>2016-09-14T11:33:34Z</time>
      </trkpt>
      <trkpt lat="44.59309" lon="2.59407">
        <ele>637.574</ele>
        <time>2016-09-14T11:33:54Z</time>
      </trkpt>
      <trkpt lat="44.59275" lon="2.59352">
        <ele>645.463</ele>
        <time>2016-09-14T11:34:14Z</time>
      </trkpt>
      <trkpt lat="44.59295" lon="2.59261">
        <ele>642.866</ele>
        <time>2016-09-14T11:34:34Z</time>
      </trkpt>
      <trkpt lat="44.59311" lon="2.59143">
        <ele>644.629</ele>
        <time>2016-09-14T11:34:54Z</time>
      </trkpt>
      <trkpt lat="44.59407" lon="2.59083">
        <ele>641.421</ele>
        <time>2016-09-14T11:35:14Z</time>
      </trkpt>
      <trkpt lat="44.59393" lon="2.59021">
        <ele>653.008</ele>
        <time>2016-09-14T11:35:34Z</time>
      </trkpt>
      <trkpt lat="44.59428" lon="2.58899">
        <ele>662.492</ele>
        <time>2016-09-14T11:35:54Z</time>
      </trkpt>
      <trkpt lat="44.59422" lon="2.58882">
        <ele>664.459</ele>
        <time>2016-09-14T11:36:14Z</time>
      </trkpt>
      <trkpt lat="44.59447" lon="2.58837">
        <ele>655.738</ele>
        <time>2016-09-14T11:36:34Z</time>
      </trkpt>
      <trkpt lat="44.59469" lon="2.58849">
        <ele>649.587</ele>
        <time>2016-09-14T11:36:54Z</time>
      </trkpt>
      <trkpt lat="44.59473" lon="2.58824">
        <ele>643.933</ele>
        <time>2016-09-14T11:37:14Z</time>
      </trkpt>
      <trkpt lat="44.59502" lon="2.58804">
        <ele>633.644</ele>
        <time>2016-09-14T11:37:34Z</time>
      </trkpt>
      <trkpt lat="44.59469" lon="2.58759">
        <ele>638.297</ele>
        <time>2016-09-14T11:37:54Z</time>
      </trkpt>
      <trkpt lat="44.59477" lon="2.58626">
        <ele>650.136</ele>
        <time>2016-09-14T11:38:14Z</time>
      </trkpt>
      <trkpt lat="44.59526" lon="2.58613">
        <ele>640.099</ele>
        <time>2016-09-14T11:38:34Z</time>
      </trkpt>
      <trkpt lat="44.59561" lon="2.58549">
        <ele>638.907</ele>
        <time>2016-09-14T11:38:54Z</time>
      </trkpt>
      <trkpt lat="44.5963" lon="2.5853">
        <ele>631.527</ele>
        <time>2016-09-14T11:39:14Z</time>
      </trkpt>
      <trkpt lat="44.5967" lon="2.58446">
        <ele>628.908</ele>
        <time>2016-09-14T11:39:34Z</time>
      </trkpt>
      <trkpt lat="44.59708" lon="2.58429">
        <ele>630.845</ele>
        <time>2016-09-14T11:39:54Z</time>
      </trkpt>
      <trkpt lat="44.59829" lon="2.58403">
        <ele>635.652</ele>
        <time>2016-09-14T11:40:14Z</time>
      </trkpt>
      <trkpt lat="44.59884" lon="2.58317">
        <ele>635.471</ele>
        <time>2016-09-14T11:40:34Z</time>
      </trkpt>
      <trkpt lat="44.59963" lon="2.58412">
        <ele>634.15</ele>
        <time>2016-09-14T11:40:54Z</time>
      </trkpt>
      <trkpt lat="44.6001" lon="2.58341">
        <ele>644.586</ele>
        <time>2016-09-14T11:41:14Z</time>
      </trkpt>
      <trkpt lat="44.60125" lon="2.58313">
        <ele>638.727</ele>
        <time>2016-09-14T11:41:34Z</time>
      </trkpt>
      <trkpt lat="44.60171" lon="2.58326">
        <ele>643.06</ele>
        <time>2016-09-14T11:41:54Z</time>
      </trkpt>
      <trkpt lat="44.6025" lon="2.58455">
        <ele>648.299</ele>
        <time>2016-09-14T11:42:14Z</time>
      </trkpt>
      <trkpt lat="44.60385" lon="2.58429">
        <ele>647.537</ele>
        <time>2016-09-14T11:42:34Z</time>
      </trkpt>
      <trkpt lat="44.6048" lon="2.58348">
        <ele>641.9</ele>
        <time>2021-01-02T21:52:20Z</time>
      </trkpt>
      <trkpt lat="44.60473" lon="2.58315">
        <ele>644.3</ele>
      </trkpt>
      <trkpt lat="44.60485" lon="2.58275">
        <ele>646.7</ele>
      </trkpt>
      <trkpt lat="44.60464" lon="2.58293">
        <ele>648.6</ele>
      </trkpt>
      <trkpt lat="44.60354" lon="2.58064">
        <ele>679.213</ele>
        <time>2016-09-14T11:43:14Z</time>
      </trkpt>
      <trkpt lat="44.60375" lon="2.57852">
        <ele>672.008</ele>
        <time>2016-09-14T11:43:34Z</time>
      </trkpt>
      <trkpt lat="44.60386" lon="2.57618">
        <ele>672.689</ele>
        <time>2016-09-14T11:43:54Z</time>
      </trkpt>
      <trkpt lat="44.60369" lon="2.57427">
        <ele>672.426</ele>
        <time>2016-09-14T11:44:14Z</time>
      </trkpt>
      <trkpt lat="44.60379" lon="2.57214">
        <ele>665.255</ele>
        <time>2016-09-14T11:44:34Z</time>
      </trkpt>
      <trkpt lat="44.60398" lon="2.57163">
        <ele>660.274</ele>
        <time>2016-09-14T11:44:54Z</time>
      </trkpt>
      <trkpt lat="44.6038" lon="2.57122">
        <ele>656.26</ele>
        <time>2016-09-14T11:45:14Z</time>
      </trkpt>
      <trkpt lat="44.60327" lon="2.57062">
        <ele>651.561</ele>
        <time>2016-09-14T11:45:34Z</time>
      </trkpt>
      <trkpt lat="44.60328" lon="2.56953">
        <ele>642.543</ele>
        <time>2016-09-14T11:46:14Z</time>
      </trkpt>
      <trkpt lat="44.60369" lon="2.56792">
        <ele>640.629</ele>
        <time>2016-09-14T11:46:34Z</time>
      </trkpt>
      <trkpt lat="44.60356" lon="2.56511">
        <ele>638.2</ele>
        <time>2016-09-14T11:46:54Z</time>
      </trkpt>
      <trkpt lat="44.6044" lon="2.563">
        <ele>638.82</ele>
        <time>2016-09-14T11:47:14Z</time>
      </trkpt>
      <trkpt lat="44.60464" lon="2.5618">
        <ele>656.808</ele>
        <time>2016-09-14T11:47:34Z</time>
      </trkpt>
      <trkpt lat="44.60515" lon="2.56094">
        <ele>653.588</ele>
        <time>2016-09-14T11:47:54Z</time>
      </trkpt>
      <trkpt lat="44.60534" lon="2.55903">
        <ele>653.825</ele>
        <time>2016-09-14T11:48:14Z</time>
      </trkpt>
      <trkpt lat="44.60507" lon="2.55811">
        <ele>648.194</ele>
        <time>2016-09-14T11:48:34Z</time>
      </trkpt>
      <trkpt lat="44.60585" lon="2.55766">
        <ele>645.753</ele>
        <time>2016-09-14T11:48:54Z</time>
      </trkpt>
      <trkpt lat="44.60571" lon="2.55736">
        <ele>643.229</ele>
        <time>2016-09-14T11:49:14Z</time>
      </trkpt>
      <trkpt lat="44.60579" lon="2.55689">
        <ele>640.28</ele>
        <time>2016-09-14T11:49:34Z</time>
      </trkpt>
      <trkpt lat="44.60548" lon="2.55665">
        <ele>637.883</ele>
        <time>2016-09-14T11:49:54Z</time>
      </trkpt>
      <trkpt lat="44.60501" lon="2.55448">
        <ele>615.622</ele>
        <time>2016-09-14T11:50:14Z</time>
      </trkpt>
      <trkpt lat="44.6046" lon="2.55311">
        <ele>605.726</ele>
        <time>2016-09-14T11:50:34Z</time>
      </trkpt>
      <trkpt lat="44.60405" lon="2.55268">
        <ele>607.047</ele>
        <time>2016-09-14T11:50:54Z</time>
      </trkpt>
      <trkpt lat="44.60432" lon="2.55176">
        <ele>616.111</ele>
        <time>2016-09-14T11:51:14Z</time>
      </trkpt>
      <trkpt lat="44.60409" lon="2.55079">
        <ele>626.208</ele>
        <time>2016-09-14T11:51:34Z</time>
      </trkpt>
      <trkpt lat="44.60334" lon="2.54933">
        <ele>609.698</ele>
        <time>2016-09-14T11:51:54Z</time>
      </trkpt>
      <trkpt lat="44.60327" lon="2.54848">
        <ele>596.945</ele>
        <time>2016-09-14T11:52:14Z</time>
      </trkpt>
      <trkpt lat="44.60262" lon="2.54627">
        <ele>597.524</ele>
        <time>2016-09-14T11:52:34Z</time>
      </trkpt>
      <trkpt lat="44.60215" lon="2.54597">
        <ele>596.073</ele>
        <time>2016-09-14T11:52:54Z</time>
      </trkpt>
      <trkpt lat="44.60165" lon="2.54609">
        <ele>600.019</ele>
        <time>2016-09-14T11:53:14Z</time>
      </trkpt>
      <trkpt lat="44.60096" lon="2.54554">
        <ele>600.37</ele>
        <time>2016-09-14T11:53:34Z</time>
      </trkpt>
      <trkpt lat="44.6011" lon="2.54378">
        <ele>608.873</ele>
        <time>2016-09-14T11:53:54Z</time>
      </trkpt>
      <trkpt lat="44.60107" lon="2.54275">
        <ele>613.392</ele>
        <time>2016-09-14T11:54:14Z</time>
      </trkpt>
      <trkpt lat="44.60078" lon="2.54109">
        <ele>623.095</ele>
        <time>2016-09-14T11:54:34Z</time>
      </trkpt>
      <trkpt lat="44.60076" lon="2.53998">
        <ele>628.449</ele>
        <time>2016-09-14T11:54:54Z</time>
      </trkpt>
      <trkpt lat="44.60015" lon="2.53882">
        <ele>628.823</ele>
        <time>2016-09-14T11:55:14Z</time>
      </trkpt>
      <trkpt lat="44.59951" lon="2.53734">
        <ele>638.508</ele>
        <time>2016-09-14T11:55:34Z</time>
      </trkpt>
      <trkpt lat="44.6003" lon="2.5362">
        <ele>637.485</ele>
        <time>2016-09-14T11:55:54Z</time>
      </trkpt>
      <trkpt lat="44.6" lon="2.53564">
        <ele>633.322</ele>
        <time>2016-09-14T11:56:14Z</time>
      </trkpt>
      <trkpt lat="44.60029" lon="2.53494">
        <ele>632.921</ele>
        <time>2016-09-14T11:56:34Z</time>
      </trkpt>
      <trkpt lat="44.60047" lon="2.53296">
        <ele>616.59</ele>
        <time>2016-09-14T11:56:54Z</time>
      </trkpt>
      <trkpt lat="44.59968" lon="2.53386">
        <ele>606.336</ele>
        <time>2016-09-14T11:57:14Z</time>
      </trkpt>
      <trkpt lat="44.59923" lon="2.53397">
        <ele>602.157</ele>
        <time>2016-09-14T11:57:34Z</time>
      </trkpt>
      <trkpt lat="44.59871" lon="2.53363">
        <ele>584.62</ele>
        <time>2016-09-14T11:57:54Z</time>
      </trkpt>
      <trkpt lat="44.59971" lon="2.53309">
        <ele>594.099</ele>
        <time>2016-09-14T11:58:14Z</time>
      </trkpt>
      <trkpt lat="44.60012" lon="2.5303">
        <ele>567.973</ele>
        <time>2016-09-14T11:58:34Z</time>
      </trkpt>
      <trkpt lat="44.60139" lon="2.5288">
        <ele>551.785</ele>
        <time>2016-09-14T11:58:54Z</time>
      </trkpt>
      <trkpt lat="44.60223" lon="2.52826">
        <ele>548.813</ele>
        <time>2016-09-14T11:59:14Z</time>
      </trkpt>
      <trkpt lat="44.60122" lon="2.52792">
        <ele>527.008</ele>
        <time>2016-09-14T11:59:34Z</time>
      </trkpt>
      <trkpt lat="44.60024" lon="2.52841">
        <ele>520.953</ele>
        <time>2016-09-14T11:59:54Z</time>
      </trkpt>
      <trkpt lat="44.59972" lon="2.52807">
        <ele>513.25</ele>
        <time>2016-09-14T12:00:14Z</time>
      </trkpt>
      <trkpt lat="44.60001" lon="2.52779">
        <ele>507.229</ele>
        <time>2016-09-14T12:00:34Z</time>
      </trkpt>
      <trkpt lat="44.60036" lon="2.52766">
        <ele>505.198</ele>
        <time>2016-09-14T12:00:54Z</time>
      </trkpt>
      <trkpt lat="44.60111" lon="2.52667">
        <ele>497.164</ele>
        <time>2016-09-14T12:01:14Z</time>
      </trkpt>
      <trkpt lat="44.60157" lon="2.52665">
        <ele>498.225</ele>
        <time>2016-09-14T12:01:34Z</time>
      </trkpt>
      <trkpt lat="44.60209" lon="2.52558">
        <ele>486.328</ele>
        <time>2016-09-14T12:01:54Z</time>
      </trkpt>
      <trkpt lat="44.60314" lon="2.52472">
        <ele>485.697</ele>
        <time>2016-09-14T12:02:14Z</time>
      </trkpt>
      <trkpt lat="44.60389" lon="2.52446">
        <ele>493.768</ele>
        <time>2016-09-14T12:02:34Z</time>
      </trkpt>
      <trkpt lat="44.60401" lon="2.52397">
        <ele>484.242</ele>
        <time>2016-09-14T12:02:54Z</time>
      </trkpt>
      <trkpt lat="44.6044" lon="2.52356">
        <ele>488.826</ele>
        <time>2016-09-14T12:03:14Z</time>
      </trkpt>
      <trkpt lat="44.60379" lon="2.52234">
        <ele>478.808</ele>
        <time>2016-09-14T12:03:34Z</time>
      </trkpt>
      <trkpt lat="44.60363" lon="2.52189">
        <ele>480.142</ele>
        <time>2016-09-14T12:03:54Z</time>
      </trkpt>
      <trkpt lat="44.60339" lon="2.52142">
        <ele>475.469</ele>
        <time>2016-09-14T12:04:14Z</time>
      </trkpt>
      <trkpt lat="44.60366" lon="2.52095">
        <ele>477.598</ele>
        <time>2016-09-14T12:04:34Z</time>
      </trkpt>
      <trkpt lat="44.60411" lon="2.5206">
        <ele>480.447</ele>
        <time>2016-09-14T12:04:54Z</time>
      </trkpt>
      <trkpt lat="44.60499" lon="2.51949">
        <ele>469.563</ele>
        <time>2016-09-14T12:05:14Z</time>
      </trkpt>
      <trkpt lat="44.6054" lon="2.51938">
        <ele>470.674</ele>
        <time>2016-09-14T12:05:34Z</time>
      </trkpt>
      <trkpt lat="44.60605" lon="2.51876">
        <ele>467.257</ele>
        <time>2016-09-14T12:05:54Z</time>
      </trkpt>
      <trkpt lat="44.60537" lon="2.5182">
        <ele>447.636</ele>
        <time>2016-09-14T12:06:14Z</time>
      </trkpt>
      <trkpt lat="44.60568" lon="2.5176">
        <ele>447.796</ele>
        <time>2016-09-14T12:06:34Z</time>
      </trkpt>
      <trkpt lat="44.60631" lon="2.51691">
        <ele>447.431</ele>
        <time>2016-09-14T12:06:54Z</time>
      </trkpt>
      <trkpt lat="44.60621" lon="2.51633">
        <ele>441.424</ele>
        <time>2016-09-14T12:07:14Z</time>
      </trkpt>
      <trkpt lat="44.60741" lon="2.51562">
        <ele>441.508</ele>
        <time>2016-09-14T12:07:34Z</time>
      </trkpt>
      <trkpt lat="44.60771" lon="2.51569">
        <ele>442.375</ele>
        <time>2016-09-14T12:07:54Z</time>
      </trkpt>
      <trkpt lat="44.60823" lon="2.5165">
        <ele>456.222</ele>
        <time>2016-09-14T12:08:14Z</time>
      </trkpt>
      <trkpt lat="44.60912" lon="2.51653">
        <ele>459.071</ele>
        <time>2016-09-14T12:08:34Z</time>
      </trkpt>
      <trkpt lat="44.60927" lon="2.51577">
        <ele>447.85</ele>
        <time>2016-09-14T12:08:54Z</time>
      </trkpt>
      <trkpt lat="44.61028" lon="2.51517">
        <ele>436.116</ele>
        <time>2016-09-14T12:09:14Z</time>
      </trkpt>
      <trkpt lat="44.61049" lon="2.51519">
        <ele>438.697</ele>
        <time>2016-09-14T12:09:34Z</time>
      </trkpt>
      <trkpt lat="44.61038" lon="2.51442">
        <ele>422.76</ele>
        <time>2016-09-14T12:09:54Z</time>
      </trkpt>
      <trkpt lat="44.61058" lon="2.51363">
        <ele>411.169</ele>
        <time>2016-09-14T12:10:14Z</time>
      </trkpt>
      <trkpt lat="44.61124" lon="2.51348">
        <ele>408.158</ele>
        <time>2016-09-14T12:10:34Z</time>
      </trkpt>
      <trkpt lat="44.61144" lon="2.51427">
        <ele>414.052</ele>
        <time>2016-09-14T12:10:54Z</time>
      </trkpt>
      <trkpt lat="44.61208" lon="2.51477">
        <ele>398.717</ele>
        <time>2016-09-14T12:11:14Z</time>
      </trkpt>
      <trkpt lat="44.612" lon="2.51543">
        <ele>405.208</ele>
        <time>2016-09-14T12:11:34Z</time>
      </trkpt>
      <trkpt lat="44.61231" lon="2.51532">
        <ele>400.641</ele>
        <time>2016-09-14T12:11:54Z</time>
      </trkpt>
      <trkpt lat="44.61232" lon="2.51429">
        <ele>395.948</ele>
        <time>2016-09-14T12:12:14Z</time>
      </trkpt>
      <trkpt lat="44.61219" lon="2.51389">
        <ele>392.447</ele>
        <time>2016-09-14T12:12:34Z</time>
      </trkpt>
      <trkpt lat="44.61258" lon="2.51303">
        <ele>400.146</ele>
        <time>2016-09-14T12:12:54Z</time>
      </trkpt>
      <trkpt lat="44.61234" lon="2.51189">
        <ele>395.232</ele>
        <time>2016-09-14T12:13:14Z</time>
      </trkpt>
      <trkpt lat="44.61271" lon="2.51065">
        <ele>397.283</ele>
        <time>2016-09-14T12:13:34Z</time>
      </trkpt>
      <trkpt lat="44.61237" lon="2.50929">
        <ele>389.466</ele>
        <time>2016-09-14T12:13:54Z</time>
      </trkpt>
      <trkpt lat="44.612" lon="2.50912">
        <ele>388.875</ele>
        <time>2016-09-14T12:14:14Z</time>
      </trkpt>
      <trkpt lat="44.61181" lon="2.50936">
        <ele>387.842</ele>
        <time>2016-09-14T12:14:34Z</time>
      </trkpt>
      <trkpt lat="44.61187" lon="2.51007">
        <ele>387.322</ele>
        <time>2016-09-14T12:14:54Z</time>
      </trkpt>
      <trkpt lat="44.61081" lon="2.50897">
        <ele>373.014</ele>
        <time>2016-09-14T12:15:14Z</time>
      </trkpt>
      <trkpt lat="44.61026" lon="2.50835">
        <ele>363.108</ele>
        <time>2016-09-14T12:15:34Z</time>
      </trkpt>
      <trkpt lat="44.60979" lon="2.50831">
        <ele>368.88</ele>
        <time>2016-09-14T12:15:54Z</time>
      </trkpt>
      <trkpt lat="44.60919" lon="2.50973">
        <ele>377.517</ele>
        <time>2021-01-02T22:25:40Z</time>
      </trkpt>
      <trkpt lat="44.60866" lon="2.50764">
        <ele>400.196</ele>
        <time>2016-09-14T12:16:54Z</time>
      </trkpt>
      <trkpt lat="44.60866" lon="2.50702">
        <ele>402.945</ele>
        <time>2016-09-14T12:17:14Z</time>
      </trkpt>
      <trkpt lat="44.60877" lon="2.50665">
        <ele>404.231</ele>
        <time>2016-09-14T12:17:34Z</time>
      </trkpt>
      <trkpt lat="44.60828" lon="2.50444">
        <ele>413.412</ele>
        <time>2016-09-14T12:17:54Z</time>
      </trkpt>
      <trkpt lat="44.6073" lon="2.50352">
        <ele>415.195</ele>
        <time>2016-09-14T12:18:14Z</time>
      </trkpt>
      <trkpt lat="44.60684" lon="2.50346">
        <ele>410.374</ele>
        <time>2016-09-14T12:18:34Z</time>
      </trkpt>
      <trkpt lat="44.60686" lon="2.50251">
        <ele>409.799</ele>
        <time>2016-09-14T12:18:54Z</time>
      </trkpt>
      <trkpt lat="44.60634" lon="2.50215">
        <ele>411.207</ele>
        <time>2016-09-14T12:19:14Z</time>
      </trkpt>
      <trkpt lat="44.60637" lon="2.50095">
        <ele>414.627</ele>
        <time>2016-09-14T12:19:34Z</time>
      </trkpt>
      <trkpt lat="44.60621" lon="2.50056">
        <ele>419.908</ele>
        <time>2016-09-14T12:19:54Z</time>
      </trkpt>
      <trkpt lat="44.60502" lon="2.49964">
        <ele>431.665</ele>
        <time>2016-09-14T12:20:14Z</time>
      </trkpt>
      <trkpt lat="44.60487" lon="2.49921">
        <ele>431.572</ele>
        <time>2016-09-14T12:20:34Z</time>
      </trkpt>
      <trkpt lat="44.60482" lon="2.49766">
        <ele>429.391</ele>
        <time>2016-09-14T12:20:54Z</time>
      </trkpt>
      <trkpt lat="44.60513" lon="2.49655">
        <ele>419.36</ele>
        <time>2016-09-14T12:21:14Z</time>
      </trkpt>
      <trkpt lat="44.60508" lon="2.49483">
        <ele>435.216</ele>
        <time>2016-09-14T12:21:34Z</time>
      </trkpt>
      <trkpt lat="44.60493" lon="2.49438">
        <ele>442.827</ele>
        <time>2016-09-14T12:21:54Z</time>
      </trkpt>
      <trkpt lat="44.60495" lon="2.49354">
        <ele>451.91</ele>
        <time>2016-09-14T12:22:14Z</time>
      </trkpt>
      <trkpt lat="44.60409" lon="2.49146">
        <ele>474.769</ele>
        <time>2016-09-14T12:22:34Z</time>
      </trkpt>
      <trkpt lat="44.60513" lon="2.4885">
        <ele>495.623</ele>
        <time>2016-09-14T12:22:54Z</time>
      </trkpt>
      <trkpt lat="44.60528" lon="2.48715">
        <ele>504.883</ele>
        <time>2016-09-14T12:23:14Z</time>
      </trkpt>
      <trkpt lat="44.60495" lon="2.48666">
        <ele>506.011</ele>
        <time>2016-09-14T12:23:34Z</time>
      </trkpt>
      <trkpt lat="44.60531" lon="2.48515">
        <ele>506.808</ele>
        <time>2016-09-14T12:23:54Z</time>
      </trkpt>
      <trkpt lat="44.60495" lon="2.48432">
        <ele>505.458</ele>
        <time>2016-09-14T12:24:14Z</time>
      </trkpt>
      <trkpt lat="44.6045" lon="2.48389">
        <ele>504.955</ele>
        <time>2016-09-14T12:24:34Z</time>
      </trkpt>
      <trkpt lat="44.60453" lon="2.48277">
        <ele>512.054</ele>
        <time>2016-09-14T12:24:54Z</time>
      </trkpt>
      <trkpt lat="44.60505" lon="2.48202">
        <ele>528.793</ele>
        <time>2016-09-14T12:25:14Z</time>
      </trkpt>
      <trkpt lat="44.60554" lon="2.4805">
        <ele>550.269</ele>
        <time>2016-09-14T12:25:34Z</time>
      </trkpt>
      <trkpt lat="44.60557" lon="2.47955">
        <ele>570.17</ele>
        <time>2016-09-14T12:25:54Z</time>
      </trkpt>
      <trkpt lat="44.60605" lon="2.47908">
        <ele>577.293</ele>
        <time>2016-09-14T12:26:14Z</time>
      </trkpt>
      <trkpt lat="44.60629" lon="2.47812">
        <ele>580.852</ele>
        <time>2016-09-14T12:26:34Z</time>
      </trkpt>
      <trkpt lat="44.60611" lon="2.47749">
        <ele>581.029</ele>
        <time>2016-09-14T12:26:54Z</time>
      </trkpt>
      <trkpt lat="44.60554" lon="2.47659">
        <ele>585.1</ele>
        <time>2016-09-14T12:27:14Z</time>
      </trkpt>
      <trkpt lat="44.60527" lon="2.47458">
        <ele>597.32</ele>
        <time>2016-09-14T12:27:34Z</time>
      </trkpt>
      <trkpt lat="44.60545" lon="2.4738">
        <ele>600.308</ele>
        <time>2016-09-14T12:27:54Z</time>
      </trkpt>
      <trkpt lat="44.60511" lon="2.47149">
        <ele>618.148</ele>
        <time>2016-09-14T12:28:14Z</time>
      </trkpt>
      <trkpt lat="44.60586" lon="2.46855">
        <ele>603.225</ele>
        <time>2016-09-14T12:28:34Z</time>
      </trkpt>
      <trkpt lat="44.60594" lon="2.46749">
        <ele>605.424</ele>
        <time>2016-09-14T12:28:54Z</time>
      </trkpt>
      <trkpt lat="44.60658" lon="2.46556">
        <ele>609.143</ele>
        <time>2016-09-14T12:29:14Z</time>
      </trkpt>
      <trkpt lat="44.6066" lon="2.46406">
        <ele>610.999</ele>
        <time>2016-09-14T12:29:34Z</time>
      </trkpt>
      <trkpt lat="44.60704" lon="2.46138">
        <ele>624.35</ele>
        <time>2016-09-14T12:29:54Z</time>
      </trkpt>
      <trkpt lat="44.61095" lon="2.45983">
        <ele>620.613</ele>
        <time>2016-09-14T12:30:14Z</time>
      </trkpt>
      <trkpt lat="44.61147" lon="2.45816">
        <ele>622.222</ele>
        <time>2016-09-14T12:30:34Z</time>
      </trkpt>
      <trkpt lat="44.61165" lon="2.45732">
        <ele>618.644</ele>
        <time>2016-09-14T12:30:54Z</time>
      </trkpt>
      <trkpt lat="44.61286" lon="2.4558">
        <ele>607.305</ele>
        <time>2016-09-14T12:31:14Z</time>
      </trkpt>
      <trkpt lat="44.61301" lon="2.45526">
        <ele>605.215</ele>
        <time>2016-09-14T12:31:34Z</time>
      </trkpt>
      <trkpt lat="44.61226" lon="2.45348">
        <ele>612.108</ele>
        <time>2016-09-14T12:31:54Z</time>
      </trkpt>
      <trkpt lat="44.6109" lon="2.45179">
        <ele>608.12</ele>
        <time>2016-09-14T12:32:14Z</time>
      </trkpt>
      <trkpt lat="44.61048" lon="2.45069">
        <ele>607.057</ele>
        <time>2016-09-14T12:32:34Z</time>
      </trkpt>
      <trkpt lat="44.61031" lon="2.44994">
        <ele>608.376</ele>
        <time>2016-09-14T12:32:54Z</time>
      </trkpt>
      <trkpt lat="44.61009" lon="2.44945">
        <ele>610.375</ele>
        <time>2016-09-14T12:33:14Z</time>
      </trkpt>
      <trkpt lat="44.60929" lon="2.44887">
        <ele>610.911</ele>
        <time>2016-09-14T12:33:34Z</time>
      </trkpt>
      <trkpt lat="44.60909" lon="2.4484">
        <ele>609.562</ele>
        <time>2016-09-14T12:33:54Z</time>
      </trkpt>
      <trkpt lat="44.60864" lon="2.4484">
        <ele>603.585</ele>
        <time>2016-09-14T12:34:14Z</time>
      </trkpt>
      <trkpt lat="44.6087" lon="2.44788">
        <ele>604.024</ele>
        <time>2016-09-14T12:34:34Z</time>
      </trkpt>
      <trkpt lat="44.60935" lon="2.44644">
        <ele>602.391</ele>
        <time>2016-09-14T12:34:54Z</time>
      </trkpt>
      <trkpt lat="44.60947" lon="2.44578">
        <ele>598.481</ele>
        <time>2016-09-14T12:35:14Z</time>
      </trkpt>
      <trkpt lat="44.6097" lon="2.44471">
        <ele>599.619</ele>
        <time>2016-09-14T12:35:34Z</time>
      </trkpt>
      <trkpt lat="44.6091" lon="2.44417">
        <ele>594.608</ele>
        <time>2016-09-14T12:35:54Z</time>
      </trkpt>
      <trkpt lat="44.60927" lon="2.44305">
        <ele>593.565</ele>
        <time>2016-09-14T12:36:14Z</time>
      </trkpt>
      <trkpt lat="44.60973" lon="2.44187">
        <ele>589.782</ele>
        <time>2016-09-14T12:36:34Z</time>
      </trkpt>
      <trkpt lat="44.60935" lon="2.44093">
        <ele>586.531</ele>
        <time>2016-09-14T12:36:54Z</time>
      </trkpt>
      <trkpt lat="44.60964" lon="2.43945">
        <ele>587.88</ele>
        <time>2016-09-14T12:37:14Z</time>
      </trkpt>
      <trkpt lat="44.60945" lon="2.4387">
        <ele>584.446</ele>
        <time>2016-09-14T12:37:34Z</time>
      </trkpt>
      <trkpt lat="44.60983" lon="2.43805">
        <ele>582.627</ele>
        <time>2016-09-14T12:37:54Z</time>
      </trkpt>
      <trkpt lat="44.60997" lon="2.4372">
        <ele>577.52</ele>
        <time>2016-09-14T12:38:14Z</time>
      </trkpt>
      <trkpt lat="44.61077" lon="2.4367">
        <ele>579.859</ele>
        <time>2016-09-14T12:38:34Z</time>
      </trkpt>
      <trkpt lat="44.61106" lon="2.43617">
        <ele>577.076</ele>
        <time>2016-09-14T12:38:54Z</time>
      </trkpt>
      <trkpt lat="44.61104" lon="2.43462">
        <ele>572.99</ele>
        <time>2016-09-14T12:39:14Z</time>
      </trkpt>
      <trkpt lat="44.61064" lon="2.43344">
        <ele>568.219</ele>
        <time>2016-09-14T12:39:34Z</time>
      </trkpt>
      <trkpt lat="44.61064" lon="2.43239">
        <ele>567.408</ele>
        <time>2016-09-14T12:39:54Z</time>
      </trkpt>
      <trkpt lat="44.61092" lon="2.43162">
        <ele>571.043</ele>
        <time>2016-09-14T12:40:14Z</time>
      </trkpt>
      <trkpt lat="44.61174" lon="2.43069">
        <ele>569.17</ele>
        <time>2016-09-14T12:40:34Z</time>
      </trkpt>
      <trkpt lat="44.61167" lon="2.42996">
        <ele>566.439</ele>
        <time>2016-09-14T12:40:54Z</time>
      </trkpt>
      <trkpt lat="44.60999" lon="2.42896">
        <ele>565.888</ele>
        <time>2016-09-14T12:41:14Z</time>
      </trkpt>
      <trkpt lat="44.60945" lon="2.42726">
        <ele>570.134</ele>
        <time>2016-09-14T12:41:34Z</time>
      </trkpt>
      <trkpt lat="44.60939" lon="2.42591">
        <ele>561.215</ele>
        <time>2016-09-14T12:41:54Z</time>
      </trkpt>
      <trkpt lat="44.60942" lon="2.42501">
        <ele>562.158</ele>
        <time>2016-09-14T12:42:14Z</time>
      </trkpt>
      <trkpt lat="44.60925" lon="2.42443">
        <ele>563.127</ele>
        <time>2016-09-14T12:42:34Z</time>
      </trkpt>
      <trkpt lat="44.60741" lon="2.42196">
        <ele>572.729</ele>
        <time>2016-09-14T12:42:54Z</time>
      </trkpt>
      <trkpt lat="44.6075" lon="2.42104">
        <ele>574.5</ele>
        <time>2016-09-14T12:43:14Z</time>
      </trkpt>
      <trkpt lat="44.60664" lon="2.42082">
        <ele>574.12</ele>
        <time>2016-09-14T12:43:34Z</time>
      </trkpt>
      <trkpt lat="44.60615" lon="2.41952">
        <ele>569.908</ele>
        <time>2016-09-14T12:43:54Z</time>
      </trkpt>
      <trkpt lat="44.60599" lon="2.41876">
        <ele>563.248</ele>
        <time>2016-09-14T12:44:14Z</time>
      </trkpt>
      <trkpt lat="44.60566" lon="2.41825">
        <ele>563.935</ele>
        <time>2016-09-14T12:44:34Z</time>
      </trkpt>
      <trkpt lat="44.60502" lon="2.41823">
        <ele>557.754</ele>
        <time>2016-09-14T12:44:54Z</time>
      </trkpt>
      <trkpt lat="44.60441" lon="2.41645">
        <ele>560.643</ele>
        <time>2016-09-14T12:45:14Z</time>
      </trkpt>
      <trkpt lat="44.60444" lon="2.41582">
        <ele>563.839</ele>
        <time>2016-09-14T12:45:34Z</time>
      </trkpt>
      <trkpt lat="44.60473" lon="2.41514">
        <ele>559.88</ele>
        <time>2016-09-14T12:45:54Z</time>
      </trkpt>
      <trkpt lat="44.60643" lon="2.41297">
        <ele>560.093</ele>
        <time>2016-09-14T12:46:14Z</time>
      </trkpt>
      <trkpt lat="44.60638" lon="2.41243">
        <ele>556.722</ele>
        <time>2016-09-14T12:46:34Z</time>
      </trkpt>
      <trkpt lat="44.60615" lon="2.41194">
        <ele>553.183</ele>
        <time>2016-09-14T12:46:54Z</time>
      </trkpt>
      <trkpt lat="44.60566" lon="2.41143">
        <ele>545.525</ele>
        <time>2016-09-14T12:47:14Z</time>
      </trkpt>
      <trkpt lat="44.60525" lon="2.40872">
        <ele>546.317</ele>
        <time>2016-09-14T12:47:34Z</time>
      </trkpt>
      <trkpt lat="44.60502" lon="2.40808">
        <ele>541.108</ele>
        <time>2016-09-14T12:47:54Z</time>
      </trkpt>
      <trkpt lat="44.60469" lon="2.40797">
        <ele>538.254</ele>
        <time>2016-09-14T12:48:14Z</time>
      </trkpt>
      <trkpt lat="44.60467" lon="2.40739">
        <ele>531.771</ele>
        <time>2016-09-14T12:48:34Z</time>
      </trkpt>
      <trkpt lat="44.60343" lon="2.40497">
        <ele>495.48</ele>
        <time>2016-09-14T12:48:54Z</time>
      </trkpt>
      <trkpt lat="44.60236" lon="2.40346">
        <ele>464.539</ele>
        <time>2016-09-14T12:49:14Z</time>
      </trkpt>
      <trkpt lat="44.60236" lon="2.40346">
        <ele>464.539</ele>
        <time>2016-09-14T12:49:14Z</time>
      </trkpt>
      <trkpt lat="44.60203" lon="2.40334">
        <ele>450.945</ele>
        <time>2016-09-14T12:49:34Z</time>
      </trkpt>
      <trkpt lat="44.60192" lon="2.40286">
        <ele>453.086</ele>
        <time>2016-09-14T12:49:54Z</time>
      </trkpt>
      <trkpt lat="44.60189" lon="2.40241">
        <ele>450.359</ele>
        <time>2016-09-14T12:50:14Z</time>
      </trkpt>
      <trkpt lat="44.60139" lon="2.40342">
        <ele>426.988</ele>
        <time>2016-09-14T12:50:34Z</time>
      </trkpt>
      <trkpt lat="44.60166" lon="2.40454">
        <ele>427.844</ele>
        <time>2016-09-14T12:50:54Z</time>
      </trkpt>
      <trkpt lat="44.60159" lon="2.40561">
        <ele>416.205</ele>
        <time>2016-09-14T12:51:14Z</time>
      </trkpt>
      <trkpt lat="44.6012" lon="2.40604">
        <ele>399.415</ele>
        <time>2016-09-14T12:51:34Z</time>
      </trkpt>
      <trkpt lat="44.60067" lon="2.40598">
        <ele>381.208</ele>
        <time>2016-09-14T12:51:54Z</time>
      </trkpt>
      <trkpt lat="44.6002" lon="2.40525">
        <ele>365.48</ele>
        <time>2016-09-14T12:52:14Z</time>
      </trkpt>
      <trkpt lat="44.5998" lon="2.40394">
        <ele>354.557</ele>
        <time>2016-09-14T12:52:34Z</time>
      </trkpt>
      <trkpt lat="44.59965" lon="2.40286">
        <ele>337.2</ele>
      </trkpt>
      <trkpt lat="44.59961" lon="2.40202">
        <ele>329.9</ele>
      </trkpt>
      <trkpt lat="44.59946" lon="2.40007">
        <ele>325.5</ele>
        <time>2016-09-14T12:52:54Z</time>
      </trkpt>
      <trkpt lat="44.59928" lon="2.39958">
        <ele>317.655</ele>
        <time>2016-09-14T12:53:14Z</time>
      </trkpt>
      <trkpt lat="44.59943" lon="2.399">
        <ele>313.1</ele>
      </trkpt>
      <trkpt lat="44.59948" lon="2.39846">
        <ele>306.4</ele>
        <time>2016-09-14T12:53:34Z</time>
      </trkpt>
      <trkpt lat="44.59943" lon="2.39748">
        <ele>299.812</ele>
        <time>2016-09-14T12:53:54Z</time>
      </trkpt>
      <trkpt lat="44.59923" lon="2.39722">
        <ele>295.425</ele>
        <time>2016-09-14T12:54:14Z</time>
      </trkpt>
      <trkpt lat="44.59905" lon="2.39722">
        <ele>288.564</ele>
        <time>2016-09-14T12:54:34Z</time>
      </trkpt>
      <trkpt lat="44.59885" lon="2.39583">
        <ele>275.792</ele>
        <time>2016-09-14T12:54:54Z</time>
      </trkpt>
      <trkpt lat="44.59822" lon="2.39469">
        <ele>254.473</ele>
        <time>2016-09-14T12:55:14Z</time>
      </trkpt>
      <trkpt lat="44.59816" lon="2.39349">
        <ele>243.82</ele>
        <time>2016-09-14T12:55:34Z</time>
      </trkpt>
      <trkpt lat="44.59811" lon="2.39295">
        <ele>226.4</ele>
        <time>2016-09-14T12:55:54Z</time>
      </trkpt>
      <trkpt lat="44.59824" lon="2.39231">
        <ele>225.875</ele>
        <time>2016-09-14T12:56:14Z</time>
      </trkpt>
      <trkpt lat="44.598" lon="2.39139">
        <ele>228.7</ele>
        <time>2016-09-14T12:56:34Z</time>
      </trkpt>
      <trkpt lat="44.59751" lon="2.3908">
        <ele>248.9</ele>
        <time>2016-09-14T12:56:54Z</time>
      </trkpt>
      <trkpt lat="44.59726" lon="2.39029">
        <ele>272.79</ele>
        <time>2016-09-14T12:57:14Z</time>
      </trkpt>
      <trkpt lat="44.59706" lon="2.39031">
        <ele>282.216</ele>
        <time>2016-09-14T12:57:34Z</time>
      </trkpt>
      <trkpt lat="44.59667" lon="2.38954">
        <ele>313.177</ele>
        <time>2016-09-14T12:57:54Z</time>
      </trkpt>
      <trkpt lat="44.59653" lon="2.3887">
        <ele>325.03</ele>
        <time>2016-09-14T12:58:14Z</time>
      </trkpt>
      <trkpt lat="44.59641" lon="2.38832">
        <ele>338.589</ele>
        <time>2016-09-14T12:58:34Z</time>
      </trkpt>
      <trkpt lat="44.5963" lon="2.38769">
        <ele>356.395</ele>
        <time>2016-09-14T12:58:54Z</time>
      </trkpt>
      <trkpt lat="44.59637" lon="2.38737">
        <ele>337.7</ele>
        <time>2016-09-14T12:59:14Z</time>
      </trkpt>
      <trkpt lat="44.5962" lon="2.38738">
        <ele>348.6</ele>
      </trkpt>
      <trkpt lat="44.59623" lon="2.38721">
        <ele>348</ele>
        <time>2016-09-14T12:59:34Z</time>
      </trkpt>
      <trkpt lat="44.59621" lon="2.38704">
        <ele>351.3</ele>
      </trkpt>
      <trkpt lat="44.59611" lon="2.38718">
        <ele>355.6</ele>
      </trkpt>
      <trkpt lat="44.59616" lon="2.3869">
        <ele>356.1</ele>
      </trkpt>
      <trkpt lat="44.59617" lon="2.3868">
        <ele>356.4</ele>
        <time>2016-09-14T12:59:54Z</time>
      </trkpt>
      <trkpt lat="44.596" lon="2.38697">
        <ele>367.9</ele>
      </trkpt>
      <trkpt lat="44.59576" lon="2.38748">
        <ele>397.215</ele>
        <time>2016-09-14T13:00:14Z</time>
      </trkpt>
      <trkpt lat="44.5954" lon="2.38909">
        <ele>418.882</ele>
        <time>2016-09-14T13:00:34Z</time>
      </trkpt>
      <trkpt lat="44.59498" lon="2.38911">
        <ele>431.691</ele>
        <time>2016-09-14T13:00:54Z</time>
      </trkpt>
      <trkpt lat="44.59381" lon="2.38821">
        <ele>464.81</ele>
        <time>2016-09-14T13:01:14Z</time>
      </trkpt>
      <trkpt lat="44.59318" lon="2.3878">
        <ele>464.356</ele>
        <time>2016-09-14T13:01:34Z</time>
      </trkpt>
      <trkpt lat="44.59344" lon="2.38763">
        <ele>473.457</ele>
        <time>2016-09-14T13:01:54Z</time>
      </trkpt>
      <trkpt lat="44.59349" lon="2.3872">
        <ele>479.93</ele>
        <time>2016-09-14T13:02:14Z</time>
      </trkpt>
      <trkpt lat="44.59379" lon="2.38671">
        <ele>494.199</ele>
        <time>2016-09-14T13:02:34Z</time>
      </trkpt>
      <trkpt lat="44.59408" lon="2.38555">
        <ele>505.214</ele>
        <time>2016-09-14T13:02:54Z</time>
      </trkpt>
      <trkpt lat="44.59343" lon="2.3846">
        <ele>519.054</ele>
        <time>2016-09-14T13:03:14Z</time>
      </trkpt>
      <trkpt lat="44.59307" lon="2.38383">
        <ele>528.509</ele>
        <time>2016-09-14T13:03:34Z</time>
      </trkpt>
      <trkpt lat="44.59303" lon="2.38323">
        <ele>530.708</ele>
        <time>2016-09-14T13:03:54Z</time>
      </trkpt>
      <trkpt lat="44.59262" lon="2.38169">
        <ele>529.387</ele>
        <time>2016-09-14T13:04:14Z</time>
      </trkpt>
      <trkpt lat="44.59245" lon="2.38035">
        <ele>540.374</ele>
        <time>2016-09-14T13:04:34Z</time>
      </trkpt>
      <trkpt lat="44.592" lon="2.37879">
        <ele>543.783</ele>
        <time>2021-01-02T23:14:00Z</time>
      </trkpt>
      <trkpt lat="44.59198" lon="2.378">
        <ele>545.472</ele>
        <time>2021-01-02T23:14:20Z</time>
      </trkpt>
      <trkpt lat="44.59125" lon="2.37678">
        <ele>545.688</ele>
        <time>2021-01-02T23:14:40Z</time>
      </trkpt>
      <trkpt lat="44.59102" lon="2.37608">
        <ele>547.6</ele>
        <time>2021-01-02T23:15:00Z</time>
      </trkpt>
      <trkpt lat="44.58908" lon="2.3762">
        <ele>548.982</ele>
        <time>2021-01-02T23:15:20Z</time>
      </trkpt>
      <trkpt lat="44.58767" lon="2.377">
        <ele>559.821</ele>
        <time>2021-01-02T23:15:40Z</time>
      </trkpt>
      <trkpt lat="44.58728" lon="2.37692">
        <ele>562.349</ele>
        <time>2021-01-02T23:16:00Z</time>
      </trkpt>
      <trkpt lat="44.58666" lon="2.37596">
        <ele>561.402</ele>
        <time>2021-01-02T23:16:20Z</time>
      </trkpt>
      <trkpt lat="44.58611" lon="2.37586">
        <ele>559.922</ele>
        <time>2021-01-02T23:16:40Z</time>
      </trkpt>
      <trkpt lat="44.58504" lon="2.37604">
        <ele>567.808</ele>
        <time>2021-01-02T23:17:00Z</time>
      </trkpt>
      <trkpt lat="44.58375" lon="2.3768">
        <ele>567.52</ele>
        <time>2021-01-02T23:17:20Z</time>
      </trkpt>
      <trkpt lat="44.58304" lon="2.37688">
        <ele>568.817</ele>
        <time>2021-01-02T23:17:40Z</time>
      </trkpt>
      <trkpt lat="44.58049" lon="2.37562">
        <ele>585.966</ele>
        <time>2021-01-02T23:18:00Z</time>
      </trkpt>
      <trkpt lat="44.57962" lon="2.37596">
        <ele>591.485</ele>
        <time>2021-01-02T23:18:20Z</time>
      </trkpt>
      <trkpt lat="44.57949" lon="2.37595">
        <ele>594.6</ele>
      </trkpt>
      <trkpt lat="44.5794" lon="2.3762">
        <ele>594.9</ele>
      </trkpt>
      <trkpt lat="44.57934" lon="2.37665">
        <ele>592.071</ele>
        <time>2021-01-02T23:18:40Z</time>
      </trkpt>
      <trkpt lat="44.57927" lon="2.37745">
        <ele>594.242</ele>
        <time>2021-01-02T23:19:00Z</time>
      </trkpt>
      <trkpt lat="44.5789" lon="2.37975">
        <ele>594.895</ele>
        <time>2021-01-02T23:19:20Z</time>
      </trkpt>
      <trkpt lat="44.57731" lon="2.38356">
        <ele>598.944</ele>
        <time>2021-01-02T23:19:40Z</time>
      </trkpt>
      <trkpt lat="44.57684" lon="2.38425">
        <ele>603.124</ele>
        <time>2021-01-02T23:20:00Z</time>
      </trkpt>
      <trkpt lat="44.57582" lon="2.38498">
        <ele>606.904</ele>
        <time>2021-01-02T23:20:20Z</time>
      </trkpt>
      <trkpt lat="44.57516" lon="2.38573">
        <ele>608.514</ele>
        <time>2021-01-02T23:20:40Z</time>
      </trkpt>
      <trkpt lat="44.5749" lon="2.3862">
        <ele>609.308</ele>
        <time>2021-01-02T23:21:00Z</time>
      </trkpt>
      <trkpt lat="44.57422" lon="2.38653">
        <ele>606.458</ele>
        <time>2021-01-02T23:21:20Z</time>
      </trkpt>
      <trkpt lat="44.57337" lon="2.38595">
        <ele>605.195</ele>
        <time>2021-01-02T23:21:40Z</time>
      </trkpt>
      <trkpt lat="44.57252" lon="2.38485">
        <ele>599.474</ele>
        <time>2021-01-02T23:22:00Z</time>
      </trkpt>
      <trkpt lat="44.57222" lon="2.38394">
        <ele>596.093</ele>
        <time>2021-01-02T23:22:20Z</time>
      </trkpt>
      <trkpt lat="44.57244" lon="2.38205">
        <ele>598.279</ele>
        <time>2021-01-02T23:22:40Z</time>
      </trkpt>
      <trkpt lat="44.57229" lon="2.38143">
        <ele>597.91</ele>
        <time>2021-01-02T23:23:00Z</time>
      </trkpt>
      <trkpt lat="44.57168" lon="2.38113">
        <ele>598.083</ele>
        <time>2021-01-02T23:23:20Z</time>
      </trkpt>
      <trkpt lat="44.57114" lon="2.38056">
        <ele>598.032</ele>
        <time>2021-01-02T23:23:40Z</time>
      </trkpt>
      <trkpt lat="44.56965" lon="2.37973">
        <ele>591.599</ele>
        <time>2021-01-02T23:24:00Z</time>
      </trkpt>
      <trkpt lat="44.56901" lon="2.37858">
        <ele>584.2</ele>
        <time>2021-01-02T23:24:20Z</time>
      </trkpt>
      <trkpt lat="44.56894" lon="2.37849">
        <ele>583.2</ele>
      </trkpt>
      <trkpt lat="44.56884" lon="2.3788">
        <ele>580.8</ele>
      </trkpt>
      <trkpt lat="44.56869" lon="2.37878">
        <ele>577</ele>
        <time>2021-01-02T23:24:40Z</time>
      </trkpt>
      <trkpt lat="44.56847" lon="2.3788">
        <ele>574.308</ele>
        <time>2021-01-02T23:25:00Z</time>
      </trkpt>
      <trkpt lat="44.56741" lon="2.37899">
        <ele>557.415</ele>
        <time>2021-01-02T23:25:20Z</time>
      </trkpt>
      <trkpt lat="44.56639" lon="2.37723">
        <ele>544.142</ele>
        <time>2021-01-02T23:25:40Z</time>
      </trkpt>
      <trkpt lat="44.56557" lon="2.37695">
        <ele>529.341</ele>
        <time>2021-01-02T23:26:00Z</time>
      </trkpt>
      <trkpt lat="44.56533" lon="2.37626">
        <ele>523.02</ele>
        <time>2021-01-02T23:26:20Z</time>
      </trkpt>
      <trkpt lat="44.56548" lon="2.3754">
        <ele>520.336</ele>
        <time>2021-01-02T23:26:40Z</time>
      </trkpt>
      <trkpt lat="44.56609" lon="2.37476">
        <ele>523.937</ele>
        <time>2021-01-02T23:27:00Z</time>
      </trkpt>
      <trkpt lat="44.56619" lon="2.37419">
        <ele>523.55</ele>
        <time>2021-01-02T23:27:20Z</time>
      </trkpt>
      <trkpt lat="44.56653" lon="2.37342">
        <ele>533.469</ele>
        <time>2021-01-02T23:27:40Z</time>
      </trkpt>
      <trkpt lat="44.56615" lon="2.37295">
        <ele>531.475</ele>
        <time>2021-01-02T23:28:00Z</time>
      </trkpt>
      <trkpt lat="44.56635" lon="2.37194">
        <ele>544.328</ele>
        <time>2021-01-02T23:28:20Z</time>
      </trkpt>
      <trkpt lat="44.56734" lon="2.37064">
        <ele>558.62</ele>
        <time>2021-01-02T23:28:40Z</time>
      </trkpt>
      <trkpt lat="44.5678" lon="2.36937">
        <ele>572.708</ele>
        <time>2021-01-02T23:29:00Z</time>
      </trkpt>
      <trkpt lat="44.5677" lon="2.36901">
        <ele>576.873</ele>
        <time>2021-01-02T23:29:20Z</time>
      </trkpt>
      <trkpt lat="44.56727" lon="2.36886">
        <ele>579.01</ele>
        <time>2021-01-02T23:29:40Z</time>
      </trkpt>
      <trkpt lat="44.56721" lon="2.36854">
        <ele>582.559</ele>
        <time>2021-01-02T23:30:00Z</time>
      </trkpt>
      <trkpt lat="44.56738" lon="2.36789">
        <ele>592.748</ele>
        <time>2021-01-02T23:30:20Z</time>
      </trkpt>
      <trkpt lat="44.56709" lon="2.36641">
        <ele>596.044</ele>
        <time>2021-01-02T23:30:40Z</time>
      </trkpt>
      <trkpt lat="44.56717" lon="2.36612">
        <ele>598.745</ele>
        <time>2021-01-02T23:31:00Z</time>
      </trkpt>
      <trkpt lat="44.56705" lon="2.36574">
        <ele>597.718</ele>
        <time>2021-01-02T23:31:20Z</time>
      </trkpt>
      <trkpt lat="44.56703" lon="2.36453">
        <ele>598.797</ele>
        <time>2021-01-02T23:31:40Z</time>
      </trkpt>
      <trkpt lat="44.56717" lon="2.3635">
        <ele>600.025</ele>
        <time>2021-01-02T23:32:00Z</time>
      </trkpt>
      <trkpt lat="44.56719" lon="2.36272">
        <ele>602.626</ele>
        <time>2021-01-02T23:32:20Z</time>
      </trkpt>
      <trkpt lat="44.56754" lon="2.36089">
        <ele>608.208</ele>
        <time>2021-01-02T23:32:40Z</time>
      </trkpt>
      <trkpt lat="44.56798" lon="2.36014">
        <ele>611.708</ele>
        <time>2021-01-02T23:33:00Z</time>
      </trkpt>
      <trkpt lat="44.56858" lon="2.35947">
        <ele>614.638</ele>
        <time>2021-01-02T23:33:20Z</time>
      </trkpt>
      <trkpt lat="44.56871" lon="2.35885">
        <ele>619.085</ele>
        <time>2021-01-02T23:33:40Z</time>
      </trkpt>
      <trkpt lat="44.56839" lon="2.35792">
        <ele>621.344</ele>
        <time>2021-01-02T23:34:00Z</time>
      </trkpt>
      <trkpt lat="44.56826" lon="2.35668">
        <ele>623.443</ele>
        <time>2021-01-02T23:34:20Z</time>
      </trkpt>
      <trkpt lat="44.56888" lon="2.35381">
        <ele>635.199</ele>
        <time>2021-01-02T23:34:40Z</time>
      </trkpt>
      <trkpt lat="44.56956" lon="2.35153">
        <ele>629.47</ele>
        <time>2021-01-02T23:35:00Z</time>
      </trkpt>
      <trkpt lat="44.57019" lon="2.35063">
        <ele>622.233</ele>
        <time>2021-01-02T23:35:20Z</time>
      </trkpt>
      <trkpt lat="44.57028" lon="2.35001">
        <ele>620.072</ele>
        <time>2021-01-02T23:35:40Z</time>
      </trkpt>
      <trkpt lat="44.56981" lon="2.34861">
        <ele>618.724</ele>
        <time>2021-01-02T23:36:00Z</time>
      </trkpt>
      <trkpt lat="44.56866" lon="2.34645">
        <ele>618.804</ele>
        <time>2021-01-02T23:36:20Z</time>
      </trkpt>
      <trkpt lat="44.56842" lon="2.34546">
        <ele>606</ele>
        <time>2021-01-02T23:36:40Z</time>
      </trkpt>
      <trkpt lat="44.5675" lon="2.34445">
        <ele>600.008</ele>
        <time>2021-01-02T23:37:00Z</time>
      </trkpt>
      <trkpt lat="44.56726" lon="2.34376">
        <ele>599.728</ele>
        <time>2021-01-02T23:37:20Z</time>
      </trkpt>
      <trkpt lat="44.56726" lon="2.34273">
        <ele>600.785</ele>
        <time>2021-01-02T23:37:40Z</time>
      </trkpt>
      <trkpt lat="44.56706" lon="2.34176">
        <ele>603.424</ele>
        <time>2021-01-02T23:38:00Z</time>
      </trkpt>
      <trkpt lat="44.56723" lon="2.34125">
        <ele>607.493</ele>
        <time>2021-01-02T23:38:20Z</time>
      </trkpt>
      <trkpt lat="44.56782" lon="2.33757">
        <ele>587.649</ele>
        <time>2021-01-02T23:38:40Z</time>
      </trkpt>
      <trkpt lat="44.5678" lon="2.33602">
        <ele>587.42</ele>
        <time>2021-01-02T23:39:00Z</time>
      </trkpt>
      <trkpt lat="44.56737" lon="2.33462">
        <ele>590.513</ele>
        <time>2021-01-02T23:39:20Z</time>
      </trkpt>
      <trkpt lat="44.56625" lon="2.3352">
        <ele>573.342</ele>
        <time>2021-01-02T23:39:40Z</time>
      </trkpt>
      <trkpt lat="44.56594" lon="2.33457">
        <ele>565.624</ele>
        <time>2021-01-02T23:40:00Z</time>
      </trkpt>
      <trkpt lat="44.56589" lon="2.33461">
        <ele>566.1</ele>
      </trkpt>
      <trkpt lat="44.5654" lon="2.33432">
        <ele>557.304</ele>
        <time>2021-01-02T23:40:20Z</time>
      </trkpt>
      <trkpt lat="44.5655" lon="2.33343">
        <ele>550.514</ele>
        <time>2021-01-02T23:40:40Z</time>
      </trkpt>
      <trkpt lat="44.56512" lon="2.33326">
        <ele>542.7</ele>
        <time>2021-01-02T23:41:00Z</time>
      </trkpt>
      <trkpt lat="44.56479" lon="2.33289">
        <ele>535.1</ele>
        <time>2021-01-02T23:41:20Z</time>
      </trkpt>
      <trkpt lat="44.56485" lon="2.3321">
        <ele>535.925</ele>
        <time>2021-01-02T23:41:40Z</time>
      </trkpt>
      <trkpt lat="44.56529" lon="2.33176">
        <ele>547.754</ele>
        <time>2021-01-02T23:42:00Z</time>
      </trkpt>
      <trkpt lat="44.56546" lon="2.331">
        <ele>547.173</ele>
        <time>2021-01-02T23:42:20Z</time>
      </trkpt>
      <trkpt lat="44.56594" lon="2.33029">
        <ele>550.869</ele>
        <time>2021-01-02T23:42:40Z</time>
      </trkpt>
      <trkpt lat="44.56678" lon="2.32982">
        <ele>560.83</ele>
        <time>2021-01-02T23:43:00Z</time>
      </trkpt>
      <trkpt lat="44.56626" lon="2.32777">
        <ele>558.173</ele>
        <time>2021-01-02T23:43:20Z</time>
      </trkpt>
      <trkpt lat="44.56617" lon="2.32665">
        <ele>561.012</ele>
        <time>2021-01-02T23:43:40Z</time>
      </trkpt>
      <trkpt lat="44.56583" lon="2.32562">
        <ele>567.893</ele>
        <time>2021-01-02T23:44:00Z</time>
      </trkpt>
      <trkpt lat="44.56526" lon="2.32472">
        <ele>575.065</ele>
        <time>2016-09-14T13:50:14Z</time>
      </trkpt>
      <trkpt lat="44.56451" lon="2.32441">
        <ele>575.721</ele>
        <time>2016-09-14T13:50:34Z</time>
      </trkpt>
      <trkpt lat="44.5643" lon="2.32394">
        <ele>579.008</ele>
        <time>2016-09-14T13:50:54Z</time>
      </trkpt>
      <trkpt lat="44.56381" lon="2.32357">
        <ele>572.7</ele>
        <time>2016-09-14T13:51:14Z</time>
      </trkpt>
      <trkpt lat="44.56347" lon="2.32182">
        <ele>563.742</ele>
        <time>2016-09-14T13:51:34Z</time>
      </trkpt>
      <trkpt lat="44.56254" lon="2.31965">
        <ele>549.731</ele>
        <time>2016-09-14T13:51:54Z</time>
      </trkpt>
      <trkpt lat="44.56214" lon="2.31638">
        <ele>537.69</ele>
        <time>2021-01-02T23:46:20Z</time>
      </trkpt>
      <trkpt lat="44.56177" lon="2.31354">
        <ele>535.476</ele>
        <time>2016-09-14T13:52:34Z</time>
      </trkpt>
      <trkpt lat="44.56105" lon="2.31283">
        <ele>528.417</ele>
        <time>2016-09-14T13:52:54Z</time>
      </trkpt>
      <trkpt lat="44.56049" lon="2.31096">
        <ele>519.64</ele>
        <time>2016-09-14T13:53:14Z</time>
      </trkpt>
      <trkpt lat="44.56025" lon="2.31045">
        <ele>513.759</ele>
        <time>2021-01-02T23:47:40Z</time>
      </trkpt>
      <trkpt lat="44.56001" lon="2.30935">
        <ele>503.238</ele>
        <time>2021-01-02T23:48:00Z</time>
      </trkpt>
      <trkpt lat="44.56001" lon="2.30935">
        <ele>503.238</ele>
        <time>2021-01-02T23:48:00Z</time>
      </trkpt>
      <trkpt lat="44.56031" lon="2.3078">
        <ele>506.17</ele>
        <time>2021-01-02T23:48:20Z</time>
      </trkpt>
      <trkpt lat="44.56009" lon="2.30573">
        <ele>504.717</ele>
        <time>2021-01-02T23:48:40Z</time>
      </trkpt>
      <trkpt lat="44.56014" lon="2.30463">
        <ele>505.3</ele>
      </trkpt>
      <trkpt lat="44.56027" lon="2.30418">
        <ele>505.908</ele>
        <time>2016-09-14T13:54:54Z</time>
      </trkpt>
      <trkpt lat="44.5606" lon="2.30299">
        <ele>502.439</ele>
        <time>2021-01-02T23:49:20Z</time>
      </trkpt>
      <trkpt lat="44.56135" lon="2.30221">
        <ele>498.756</ele>
        <time>2021-01-02T23:49:40Z</time>
      </trkpt>
      <trkpt lat="44.56158" lon="2.30163">
        <ele>487.985</ele>
        <time>2021-01-02T23:50:00Z</time>
      </trkpt>
      <trkpt lat="44.56151" lon="2.30146">
        <ele>495.4</ele>
      </trkpt>
      <trkpt lat="44.56139" lon="2.30137">
        <ele>486.634</ele>
        <time>2021-01-02T23:50:20Z</time>
      </trkpt>
      <trkpt lat="44.56081" lon="2.30153">
        <ele>487.4</ele>
        <time>2021-01-02T23:50:40Z</time>
      </trkpt>
      <trkpt lat="44.56055" lon="2.30147">
        <ele>484</ele>
      </trkpt>
      <trkpt lat="44.56032" lon="2.30131">
        <ele>479.9</ele>
        <time>2021-01-02T23:51:00Z</time>
      </trkpt>
      <trkpt lat="44.55982" lon="2.29899">
        <ele>456.4</ele>
        <time>2016-09-14T13:55:54Z</time>
      </trkpt>
      <trkpt lat="44.55986" lon="2.29869">
        <ele>454</ele>
        <time>2016-09-14T13:56:14Z</time>
      </trkpt>
      <trkpt lat="44.55977" lon="2.29809">
        <ele>451.734</ele>
        <time>2016-09-14T13:56:34Z</time>
      </trkpt>
      <trkpt lat="44.55991" lon="2.29759">
        <ele>450.955</ele>
        <time>2016-09-14T13:56:54Z</time>
      </trkpt>
      <trkpt lat="44.56096" lon="2.29622">
        <ele>438.01</ele>
        <time>2016-09-14T13:57:14Z</time>
      </trkpt>
      <trkpt lat="44.56119" lon="2.29549">
        <ele>436.508</ele>
        <time>2016-09-14T13:57:34Z</time>
      </trkpt>
      <trkpt lat="44.56089" lon="2.29489">
        <ele>436.969</ele>
        <time>2016-09-14T13:57:54Z</time>
      </trkpt>
      <trkpt lat="44.56093" lon="2.29322">
        <ele>426.726</ele>
        <time>2016-09-14T13:58:14Z</time>
      </trkpt>
      <trkpt lat="44.56163" lon="2.29165">
        <ele>429.425</ele>
        <time>2016-09-14T13:58:34Z</time>
      </trkpt>
      <trkpt lat="44.56272" lon="2.29004">
        <ele>432.014</ele>
        <time>2016-09-14T13:58:54Z</time>
      </trkpt>
      <trkpt lat="44.56255" lon="2.28813">
        <ele>422</ele>
        <time>2016-09-14T13:59:14Z</time>
      </trkpt>
      <trkpt lat="44.56232" lon="2.28787">
        <ele>418.4</ele>
      </trkpt>
      <trkpt lat="44.56216" lon="2.28757">
        <ele>415.4</ele>
        <time>2016-09-14T13:59:34Z</time>
      </trkpt>
      <trkpt lat="44.5622" lon="2.28695">
        <ele>409.414</ele>
        <time>2016-09-14T13:59:54Z</time>
      </trkpt>
      <trkpt lat="44.56237" lon="2.28618">
        <ele>407.343</ele>
        <time>2016-09-14T14:00:14Z</time>
      </trkpt>
      <trkpt lat="44.56367" lon="2.28418">
        <ele>387.558</ele>
        <time>2016-09-14T14:00:34Z</time>
      </trkpt>
      <trkpt lat="44.564" lon="2.28403">
        <ele>385.052</ele>
        <time>2016-09-14T14:00:54Z</time>
      </trkpt>
      <trkpt lat="44.56368" lon="2.28367">
        <ele>378.417</ele>
        <time>2016-09-14T14:01:14Z</time>
      </trkpt>
      <trkpt lat="44.56371" lon="2.28225">
        <ele>366.408</ele>
        <time>2016-09-14T14:01:34Z</time>
      </trkpt>
      <trkpt lat="44.56347" lon="2.28015">
        <ele>349.811</ele>
        <time>2016-09-14T14:01:54Z</time>
      </trkpt>
      <trkpt lat="44.56367" lon="2.27895">
        <ele>341.768</ele>
        <time>2016-09-14T14:02:14Z</time>
      </trkpt>
      <trkpt lat="44.56368" lon="2.27828">
        <ele>335.897</ele>
        <time>2016-09-14T14:02:34Z</time>
      </trkpt>
      <trkpt lat="44.56344" lon="2.27804">
        <ele>338.246</ele>
        <time>2016-09-14T14:02:54Z</time>
      </trkpt>
      <trkpt lat="44.56416" lon="2.27579">
        <ele>333.072</ele>
        <time>2016-09-14T14:03:14Z</time>
      </trkpt>
      <trkpt lat="44.56433" lon="2.2748">
        <ele>333.023</ele>
        <time>2016-09-14T14:03:34Z</time>
      </trkpt>
      <trkpt lat="44.56469" lon="2.27431">
        <ele>333.276</ele>
        <time>2016-09-14T14:03:54Z</time>
      </trkpt>
      <trkpt lat="44.56511" lon="2.27279">
        <ele>338.585</ele>
        <time>2016-09-14T14:04:14Z</time>
      </trkpt>
      <trkpt lat="44.56498" lon="2.27182">
        <ele>344.577</ele>
        <time>2016-09-14T14:04:34Z</time>
        <extensions>
          <visugpx:TrkExtension xmlns:visugpx="https://www.visugpx.com/editgpx/">
            <visugpx:node>5</visugpx:node>
            </visugpx:TrkExtension>
        </extensions>
      </trkpt>
    </trkseg>
  </trk>
</gpx>